| time (UTC) | temp F | wind direction | speed MPH | gust MPH | rain 1hr in | rain 24hr in | rain mn in | humidity % | barometer mb |
| 20260506214640 | 0 | 0.0 | 0.0 | 0.00 | 0.00 | 0.00 | 1005.7 | ||
| 20260506214137 | 0 | 0.0 | 0.0 | 0.00 | 0.00 | 0.00 | 1005.7 | ||
| 20260506213636 | 0 | 0.0 | 0.0 | 0.00 | 0.00 | 0.00 | 1005.7 | ||
| 20260506213132 | 0 | 0.0 | 0.0 | 0.00 | 0.00 | 0.00 | 1006.0 | ||
| 20260506212630 | 0 | 0.0 | 0.0 | 0.00 | 0.00 | 0.00 | 1006.0 | ||
| 20260506212124 | 0 | 0.0 | 0.0 | 0.00 | 0.00 | 0.00 | 1005.8 | ||
| 20260506211620 | 0 | 0.0 | 0.0 | 0.00 | 0.00 | 0.00 | 1006.0 | ||
| 20260506211117 | 0 | 0.0 | 0.0 | 0.00 | 0.00 | 0.00 | 1005.9 | ||
| 20260506210614 | 0 | 0.0 | 0.0 | 0.00 | 0.00 | 0.00 | 1006.3 | ||
| 20260506210110 | 0 | 0.0 | 0.0 | 0.00 | 0.00 | 0.00 | 1006.0 | ||
| 20260506205608 | 0 | 0.0 | 0.0 | 0.00 | 0.00 | 0.00 | 1006.3 | ||
| 20260506205102 | 0 | 0.0 | 0.0 | 0.00 | 0.00 | 0.00 | 1006.1 | ||
| 20260506204601 | 0 | 0.0 | 0.0 | 0.00 | 0.00 | 0.00 | 1006.3 | ||
| 20260506204057 | 0 | 0.0 | 0.0 | 0.00 | 0.00 | 0.00 | 1006.3 | ||
| 20260506203556 | 0 | 0.0 | 0.0 | 0.00 | 0.00 | 0.00 | 1006.4 | ||
| 20260506203052 | 0 | 0.0 | 0.0 | 0.00 | 0.00 | 0.00 | 1006.4 | ||
| 20260506202550 | 0 | 0.0 | 0.0 | 0.00 | 0.00 | 0.00 | 1006.4 | ||
| 20260506202046 | 0 | 0.0 | 0.0 | 0.00 | 0.00 | 0.00 | 1006.5 | ||
| 20260506201544 | 86 | 171 | 0.0 | 0.0 | 0.00 | 0.00 | 0.00 | 85 | 1006.3 |
| 20260506201040 | 86 | 171 | 0.0 | 0.0 | 0.00 | 0.00 | 0.00 | 85 | 1006.4 |
| 20260506200536 | 86 | 171 | 0.0 | 0.0 | 0.00 | 0.00 | 0.00 | 85 | 1006.4 |
| 20260506200033 | 86 | 171 | 0.0 | 0.0 | 0.00 | 0.00 | 0.00 | 85 | 1006.5 |
| 20260506195530 | 86 | 171 | 0.0 | 0.0 | 0.00 | 0.00 | 0.00 | 85 | 1006.6 |
| 20260506195026 | 86 | 171 | 0.0 | 0.0 | 0.00 | 0.00 | 0.00 | 85 | 1006.5 |
| 20260506194524 | 86 | 171 | 0.0 | 0.0 | 0.00 | 0.00 | 0.00 | 85 | 1006.8 |
| 20260506194020 | 86 | 171 | 0.0 | 0.0 | 0.00 | 0.00 | 0.00 | 85 | 1006.7 |
| 20260506193517 | 86 | 171 | 0.0 | 0.0 | 0.00 | 0.00 | 0.00 | 85 | 1006.8 |
| 20260506193015 | 86 | 171 | 0.0 | 0.0 | 0.00 | 0.00 | 0.00 | 85 | 1006.7 |
| 20260506192511 | 86 | 171 | 0.0 | 0.0 | 0.00 | 0.00 | 0.00 | 85 | 1006.8 |
| 20260506192007 | 86 | 171 | 0.0 | 0.0 | 0.00 | 0.00 | 0.00 | 85 | 1006.6 |
| 20260506191504 | 86 | 165 | 1.0 | 6.0 | 0.00 | 0.00 | 0.00 | 85 | 1007.1 |
| 20260506191001 | 86 | 192 | 3.0 | 6.0 | 0.00 | 0.00 | 0.00 | 85 | 1007.0 |
| 20260506190458 | 85 | 180 | 1.0 | 2.0 | 0.00 | 0.00 | 0.00 | 87 | 1007.2 |
| 20260506185954 | 85 | 192 | 2.0 | 7.0 | 0.00 | 0.00 | 0.00 | 87 | 1007.1 |
| 20260506185452 | 85 | 93 | 4.0 | 5.0 | 0.00 | 0.00 | 0.00 | 86 | 1007.2 |
| 20260506184948 | 85 | 196 | 0.0 | 9.0 | 0.00 | 0.00 | 0.00 | 86 | 1007.2 |
| 20260506184445 | 85 | 146 | 4.0 | 6.0 | 0.00 | 0.00 | 0.00 | 87 | 1007.3 |
| 20260506183942 | 85 | 159 | 3.0 | 8.0 | 0.00 | 0.00 | 0.00 | 87 | 1007.3 |
| 20260506183438 | 85 | 174 | 4.0 | 8.0 | 0.00 | 0.00 | 0.00 | 87 | 1007.3 |
| 20260506182935 | 85 | 149 | 1.0 | 2.0 | 0.00 | 0.00 | 0.00 | 87 | 1007.5 |
| 20260506182432 | 85 | 193 | 3.0 | 5.0 | 0.00 | 0.00 | 0.00 | 87 | 1007.5 |
| 20260506181930 | 84 | 166 | 2.0 | 5.0 | 0.00 | 0.00 | 0.00 | 89 | 1007.6 |
| 20260506181428 | 83 | 152 | 4.0 | 6.0 | 0.00 | 0.00 | 0.00 | 90 | 1007.9 |
| 20260506180924 | 82 | 143 | 2.0 | 3.0 | 0.00 | 0.00 | 0.00 | 91 | 1007.8 |
| 20260506180420 | 82 | 171 | 3.0 | 3.0 | 0.00 | 0.00 | 0.00 | 92 | 1007.8 |
| 20260506175917 | 82 | 148 | 1.0 | 6.0 | 0.00 | 0.00 | 0.00 | 92 | 1008.1 |
| 20260506175414 | 82 | 198 | 1.0 | 2.0 | 0.00 | 0.00 | 0.00 | 92 | 1008.1 |
| 20260506174911 | 82 | 174 | 0.0 | 1.0 | 0.00 | 0.00 | 0.00 | 92 | 1008.2 |
| 20260506174409 | 82 | 174 | 0.0 | 1.0 | 0.00 | 0.00 | 0.00 | 92 | 1008.3 |
| 20260506173906 | 82 | 167 | 0.0 | 1.0 | 0.00 | 0.00 | 0.00 | 91 | 1008.5 |
| 20260506173402 | 82 | 161 | 0.0 | 2.0 | 0.00 | 0.00 | 0.00 | 92 | 1008.3 |
| 20260506172859 | 82 | 170 | 0.0 | 3.0 | 0.00 | 0.00 | 0.00 | 92 | 1008.4 |
| 20260506172356 | 83 | 196 | 2.0 | 5.0 | 0.00 | 0.00 | 0.00 | 91 | 1008.4 |
| 20260506171853 | 83 | 196 | 0.0 | 3.0 | 0.00 | 0.00 | 0.00 | 92 | 1008.6 |
| 20260506171350 | 83 | 188 | 0.0 | 1.0 | 0.00 | 0.00 | 0.00 | 92 | 1008.6 |
| 20260506170848 | 83 | 201 | 1.0 | 5.0 | 0.00 | 0.00 | 0.00 | 91 | 1008.5 |
| 20260506170344 | 83 | 188 | 0.0 | 1.0 | 0.00 | 0.00 | 0.00 | 92 | 1008.3 |
| 20260506165843 | 82 | 134 | 4.0 | 5.0 | 0.00 | 0.00 | 0.00 | 92 | 1008.6 |
| 20260506165341 | 82 | 162 | 0.0 | 3.0 | 0.00 | 0.00 | 0.00 | 93 | 1008.4 |
| 20260506164837 | 82 | 200 | 2.0 | 5.0 | 0.00 | 0.00 | 0.00 | 93 | 1008.5 |
| 20260506164333 | 81 | 176 | 1.0 | 6.0 | 0.00 | 0.00 | 0.00 | 94 | 1008.4 |
| 20260506163825 | 81 | 152 | 2.0 | 2.0 | 0.00 | 0.00 | 0.00 | 95 | 1008.8 |
| 20260506163320 | 80 | 170 | 1.0 | 2.0 | 0.00 | 0.00 | 0.00 | 96 | 1008.3 |
| 20260506162816 | 80 | 164 | 1.0 | 1.0 | 0.00 | 0.00 | 0.00 | 97 | 1008.4 |
| 20260506162314 | 79 | 189 | 2.0 | 3.0 | 0.00 | 0.00 | 0.00 | 98 | 1008.4 |
| 20260506161811 | 79 | 196 | 0.0 | 3.0 | 0.00 | 0.00 | 0.00 | 98 | 1008.5 |
| 20260506161308 | 79 | 183 | 1.0 | 3.0 | 0.00 | 0.00 | 0.00 | 98 | 1008.5 |
| 20260506160806 | 79 | 140 | 2.0 | 3.0 | 0.00 | 0.00 | 0.00 | 98 | 1008.3 |
| 20260506160302 | 79 | 126 | 3.0 | 5.0 | 0.00 | 0.00 | 0.00 | 98 | 1008.2 |
| 20260506155801 | 79 | 153 | 0.0 | 2.0 | 0.00 | 0.00 | 0.00 | 98 | 1008.1 |
| 20260506155257 | 79 | 174 | 4.0 | 5.0 | 0.00 | 0.00 | 0.00 | 97 | 1008.2 |
| 20260506153410 | 79 | 194 | 4.0 | 8.0 | 0.00 | 0.00 | 0.00 | 97 | 1008.3 |
| 20260506152907 | 79 | 169 | 2.0 | 3.0 | 0.00 | 0.00 | 0.00 | 97 | 1008.1 |
| 20260506152404 | 79 | 174 | 0.0 | 5.0 | 0.00 | 0.00 | 0.00 | 97 | 1008.0 |
| 20260506151903 | 79 | 166 | 1.0 | 3.0 | 0.00 | 0.00 | 0.00 | 96 | 1007.8 |
| 20260506151359 | 79 | 162 | 3.0 | 6.0 | 0.00 | 0.00 | 0.00 | 96 | 1007.8 |
| 20260506150857 | 79 | 173 | 2.0 | 5.0 | 0.00 | 0.00 | 0.00 | 96 | 1007.7 |
| 20260506150353 | 79 | 180 | 2.0 | 3.0 | 0.00 | 0.00 | 0.00 | 96 | 1007.7 |
| 20260506145850 | 79 | 187 | 1.0 | 3.0 | 0.00 | 0.00 | 0.00 | 96 | 1007.7 |
| 20260506145346 | 79 | 170 | 3.0 | 6.0 | 0.00 | 0.00 | 0.00 | 96 | 1007.5 |
| 20260506144844 | 79 | 174 | 2.0 | 3.0 | 0.00 | 0.00 | 0.00 | 96 | 1007.4 |
| 20260506144340 | 79 | 187 | 1.0 | 5.0 | 0.00 | 0.00 | 0.00 | 96 | 1007.2 |
| 20260506143839 | 79 | 180 | 0.0 | 2.0 | 0.00 | 0.00 | 0.00 | 97 | 1007.3 |
| 20260506143335 | 79 | 79 | 3.0 | 5.0 | 0.00 | 0.00 | 0.00 | 98 | 1006.9 |
| 20260506142833 | 79 | 173 | 2.0 | 6.0 | 0.00 | 0.00 | 0.00 | 99 | 1007.0 |
| 20260506142331 | 78 | 176 | 1.0 | 5.0 | 0.00 | 0.00 | 0.00 | 99 | 1007.1 |
| 20260506141829 | 78 | 183 | 1.0 | 7.0 | 0.00 | 0.00 | 0.00 | 99 | 1007.1 |
| 20260506141327 | 78 | 141 | 1.0 | 2.0 | 0.00 | 0.00 | 0.00 | 99 | 1007.2 |
| 20260506140825 | 77 | 192 | 0.0 | 3.0 | 0.00 | 0.00 | 0.00 | 99 | 1007.2 |
| 20260506140321 | 77 | 164 | 1.0 | 6.0 | 0.00 | 0.00 | 0.00 | 99 | 1007.2 |
| 20260506135819 | 77 | 148 | 2.0 | 5.0 | 0.00 | 0.00 | 0.00 | 99 | 1007.4 |
| 20260506135315 | 77 | 174 | 1.0 | 3.0 | 0.00 | 0.00 | 0.00 | 99 | 1007.2 |
| 20260506134811 | 77 | 152 | 3.0 | 3.0 | 0.00 | 0.00 | 0.00 | 99 | 1007.5 |
| 20260506134308 | 76 | 150 | 1.0 | 1.0 | 0.00 | 0.00 | 0.00 | 99 | 1007.3 |
| 20260506133805 | 76 | 186 | 3.0 | 6.0 | 0.00 | 0.00 | 0.00 | 99 | 1007.3 |
| 20260506133302 | 76 | 170 | 0.0 | 0.0 | 0.00 | 0.00 | 0.00 | 99 | 1007.3 |
| 20260506132758 | 76 | 181 | 0.0 | 0.0 | 0.00 | 0.00 | 0.00 | 99 | 1007.5 |
| 20260506132255 | 76 | 181 | 0.0 | 0.0 | 0.00 | 0.00 | 0.00 | 99 | 1007.6 |
| 20260506131753 | 76 | 181 | 0.0 | 0.0 | 0.00 | 0.00 | 0.00 | 99 | 1007.6 |
| 20260506131249 | 76 | 170 | 1.0 | 2.0 | 0.00 | 0.00 | 0.00 | 99 | 1007.5 |
| 20260506130746 | 75 | 170 | 0.0 | 1.0 | 0.00 | 0.00 | 0.00 | 99 | 1007.6 |
| 20260506130243 | 75 | 175 | 0.0 | 1.0 | 0.00 | 0.00 | 0.00 | 99 | 1007.5 |
| 20260506125741 | 75 | 179 | 0.0 | 1.0 | 0.00 | 0.00 | 0.00 | 99 | 1007.5 |
| 20260506125239 | 75 | 181 | 0.0 | 0.0 | 0.00 | 0.00 | 0.00 | 99 | 1007.3 |
| 20260506124737 | 75 | 174 | 1.0 | 2.0 | 0.00 | 0.00 | 0.00 | 99 | 1007.5 |
| 20260506124234 | 75 | 167 | 0.0 | 0.0 | 0.00 | 0.00 | 0.00 | 99 | 1007.4 |
| 20260506123732 | 75 | 123 | 2.0 | 3.0 | 0.00 | 0.00 | 0.00 | 99 | 1007.5 |
| 20260506123230 | 75 | 178 | 0.0 | 1.0 | 0.00 | 0.00 | 0.00 | 99 | 1007.4 |
| 20260506122726 | 75 | 177 | 0.0 | 0.0 | 0.00 | 0.00 | 0.00 | 99 | 1007.4 |
| 20260506122224 | 75 | 167 | 0.0 | 0.0 | 0.00 | 0.00 | 0.00 | 99 | 1007.4 |
| 20260506121722 | 75 | 150 | 0.0 | 0.0 | 0.00 | 0.00 | 0.00 | 99 | 1007.4 |
| 20260506121218 | 75 | 174 | 0.0 | 1.0 | 0.00 | 0.00 | 0.00 | 99 | 1007.4 |
| 20260506120716 | 75 | 179 | 0.0 | 1.0 | 0.00 | 0.00 | 0.00 | 99 | 1007.2 |
| 20260506120214 | 75 | 154 | 0.0 | 0.0 | 0.00 | 0.00 | 0.00 | 99 | 1007.4 |
| 20260506115712 | 75 | 171 | 0.0 | 0.0 | 0.00 | 0.00 | 0.00 | 99 | 1007.2 |
| 20260506115209 | 75 | 169 | 0.0 | 1.0 | 0.00 | 0.00 | 0.00 | 99 | 1007.0 |
| 20260506114706 | 75 | 164 | 1.0 | 2.0 | 0.00 | 0.00 | 0.00 | 99 | 1007.0 |
| 20260506114204 | 75 | 177 | 3.0 | 3.0 | 0.00 | 0.00 | 0.00 | 99 | 1006.7 |
| 20260506113703 | 75 | 160 | 0.0 | 3.0 | 0.00 | 0.00 | 0.00 | 99 | 1006.9 |
| 20260506113200 | 75 | 161 | 0.0 | 0.0 | 0.00 | 0.00 | 0.00 | 99 | 1006.8 |
| 20260506112656 | 75 | 182 | 0.0 | 1.0 | 0.00 | 0.00 | 0.00 | 99 | 1006.8 |
| 20260506112154 | 75 | 168 | 1.0 | 1.0 | 0.00 | 0.00 | 0.00 | 99 | 1007.0 |
| 20260506111651 | 75 | 172 | 0.0 | 1.0 | 0.00 | 0.00 | 0.00 | 99 | 1006.5 |
| 20260506111149 | 75 | 171 | 2.0 | 2.0 | 0.00 | 0.00 | 0.00 | 99 | 1006.6 |
| 20260506110646 | 75 | 150 | 0.0 | 1.0 | 0.00 | 0.00 | 0.00 | 99 | 1006.6 |
| 20260506110143 | 75 | 181 | 2.0 | 2.0 | 0.00 | 0.00 | 0.00 | 99 | 1006.6 |
| 20260506105640 | 75 | 159 | 2.0 | 2.0 | 0.00 | 0.00 | 0.00 | 99 | 1006.7 |
| 20260506105137 | 75 | 162 | 1.0 | 3.0 | 0.00 | 0.00 | 0.00 | 99 | 1006.5 |
| 20260506104634 | 75 | 139 | 1.0 | 3.0 | 0.00 | 0.00 | 0.00 | 99 | 1006.4 |
| 20260506104132 | 75 | 145 | 1.0 | 2.0 | 0.00 | 0.00 | 0.00 | 99 | 1006.5 |
| 20260506103629 | 75 | 150 | 2.0 | 3.0 | 0.00 | 0.00 | 0.00 | 99 | 1006.3 |
| 20260506103126 | 75 | 183 | 1.0 | 3.0 | 0.00 | 0.00 | 0.00 | 99 | 1006.5 |
| 20260506102624 | 75 | 173 | 0.0 | 5.0 | 0.00 | 0.00 | 0.00 | 99 | 1006.5 |
| 20260506102121 | 75 | 169 | 1.0 | 3.0 | 0.00 | 0.00 | 0.00 | 99 | 1006.5 |
| 20260506101618 | 75 | 204 | 2.0 | 6.0 | 0.00 | 0.00 | 0.00 | 99 | 1006.3 |
| 20260506101114 | 75 | 140 | 2.0 | 3.0 | 0.00 | 0.00 | 0.00 | 99 | 1006.3 |
| 20260506100613 | 75 | 172 | 0.0 | 2.0 | 0.00 | 0.00 | 0.00 | 99 | 1006.4 |
| 20260506100111 | 75 | 173 | 0.0 | 2.0 | 0.00 | 0.00 | 0.00 | 99 | 1006.3 |
| 20260506095609 | 75 | 172 | 0.0 | 2.0 | 0.00 | 0.00 | 0.00 | 99 | 1006.3 |
| 20260506095105 | 75 | 179 | 1.0 | 2.0 | 0.00 | 0.00 | 0.00 | 99 | 1006.3 |
| 20260506094603 | 75 | 174 | 0.0 | 2.0 | 0.00 | 0.00 | 0.00 | 99 | 1006.2 |
| 20260506094101 | 75 | 154 | 1.0 | 2.0 | 0.00 | 0.00 | 0.00 | 99 | 1006.3 |
| 20260506093559 | 75 | 170 | 1.0 | 2.0 | 0.00 | 0.00 | 0.00 | 99 | 1006.3 |
| 20260506093056 | 75 | 182 | 0.0 | 1.0 | 0.00 | 0.00 | 0.00 | 99 | 1006.3 |
| 20260506092554 | 75 | 166 | 1.0 | 2.0 | 0.00 | 0.00 | 0.00 | 99 | 1006.2 |
| 20260506092050 | 75 | 171 | 0.0 | 1.0 | 0.00 | 0.00 | 0.00 | 99 | 1006.2 |
| 20260506091549 | 75 | 168 | 0.0 | 2.0 | 0.00 | 0.00 | 0.00 | 99 | 1006.3 |
| 20260506091046 | 75 | 178 | 0.0 | 2.0 | 0.00 | 0.00 | 0.00 | 99 | 1006.3 |
| 20260506090543 | 75 | 170 | 2.0 | 2.0 | 0.00 | 0.00 | 0.00 | 99 | 1006.4 |
| 20260506090039 | 75 | 161 | 0.0 | 0.0 | 0.00 | 0.00 | 0.00 | 99 | 1006.4 |
| 20260506085537 | 75 | 179 | 0.0 | 2.0 | 0.00 | 0.00 | 0.00 | 99 | 1006.5 |
| 20260506085033 | 76 | 172 | 0.0 | 1.0 | 0.00 | 0.00 | 0.00 | 99 | 1006.5 |
| 20260506084530 | 76 | 188 | 0.0 | 2.0 | 0.00 | 0.00 | 0.00 | 99 | 1006.4 |
| 20260506084026 | 76 | 153 | 0.0 | 3.0 | 0.00 | 0.00 | 0.00 | 99 | 1006.5 |
| 20260506083523 | 76 | 161 | 0.0 | 3.0 | 0.00 | 0.00 | 0.00 | 99 | 1006.5 |
| 20260506083021 | 76 | 207 | 1.0 | 2.0 | 0.00 | 0.00 | 0.00 | 99 | 1006.6 |
| 20260506082517 | 76 | 178 | 2.0 | 5.0 | 0.00 | 0.00 | 0.00 | 99 | 1006.6 |
| 20260506082013 | 76 | 168 | 2.0 | 3.0 | 0.00 | 0.00 | 0.00 | 99 | 1006.5 |
| 20260506081511 | 76 | 169 | 2.0 | 5.0 | 0.00 | 0.00 | 0.00 | 99 | 1006.4 |
| 20260506081009 | 76 | 156 | 3.0 | 6.0 | 0.00 | 0.00 | 0.00 | 99 | 1006.6 |
| 20260506080506 | 76 | 132 | 2.0 | 5.0 | 0.00 | 0.00 | 0.00 | 99 | 1006.5 |
| 20260506073449 | 76 | 146 | 2.0 | 6.0 | 0.00 | 0.00 | 0.00 | 99 | 1006.9 |
| 20260506072946 | 76 | 178 | 1.0 | 3.0 | 0.00 | 0.00 | 0.00 | 99 | 1007.1 |
| 20260506072444 | 76 | 182 | 2.0 | 5.0 | 0.00 | 0.00 | 0.00 | 99 | 1007.0 |
| 20260506071942 | 76 | 157 | 1.0 | 3.0 | 0.00 | 0.00 | 0.00 | 99 | 1007.0 |
| 20260506071439 | 76 | 186 | 0.0 | 2.0 | 0.00 | 0.00 | 0.00 | 99 | 1007.2 |
| 20260506070936 | 76 | 148 | 2.0 | 6.0 | 0.00 | 0.00 | 0.00 | 99 | 1007.1 |
| 20260506070433 | 76 | 153 | 3.0 | 6.0 | 0.00 | 0.00 | 0.00 | 99 | 1007.3 |
| 20260506062410 | 76 | 185 | 1.0 | 2.0 | 0.00 | 0.00 | 0.00 | 99 | 1007.4 |
| 20260506061906 | 76 | 138 | 1.0 | 1.0 | 0.00 | 0.00 | 0.00 | 99 | 1007.3 |
| 20260506061403 | 76 | 167 | 0.0 | 2.0 | 0.00 | 0.00 | 0.00 | 99 | 1007.4 |
| 20260506060901 | 76 | 181 | 1.0 | 3.0 | 0.00 | 0.00 | 0.00 | 99 | 1007.4 |
| 20260506060359 | 76 | 165 | 0.0 | 2.0 | 0.00 | 0.00 | 0.00 | 99 | 1007.7 |
| 20260506051331 | 77 | 96 | 2.0 | 3.0 | 0.00 | 0.00 | 0.00 | 99 | 1007.4 |
| 20260506050828 | 77 | 154 | 0.0 | 1.0 | 0.00 | 0.00 | 0.00 | 99 | 1007.4 |
| 20260506050325 | 77 | 176 | 0.0 | 3.0 | 0.00 | 0.00 | 0.00 | 99 | 1007.4 |
| 20260506044816 | 77 | 181 | 0.0 | 0.0 | 0.00 | 0.00 | 0.00 | 99 | 1007.5 |
| 20260506044314 | 77 | 186 | 0.0 | 6.0 | 0.00 | 0.00 | 0.00 | 99 | 1007.4 |
| 20260506043810 | 77 | 163 | 2.0 | 5.0 | 0.00 | 0.00 | 0.00 | 99 | 1007.5 |
| 20260506043308 | 77 | 173 | 0.0 | 3.0 | 0.00 | 0.00 | 0.00 | 99 | 1007.3 |
| 20260506042806 | 77 | 154 | 1.0 | 6.0 | 0.00 | 0.00 | 0.00 | 99 | 1007.3 |
| 20260506042305 | 77 | 158 | 0.0 | 2.0 | 0.00 | 0.00 | 0.00 | 99 | 1007.3 |
| 20260506041803 | 77 | 97 | 1.0 | 3.0 | 0.00 | 0.00 | 0.00 | 99 | 1007.4 |
| 20260506041259 | 77 | 159 | 0.0 | 2.0 | 0.00 | 0.00 | 0.00 | 99 | 1007.4 |
| 20260506040757 | 77 | 177 | 0.0 | 3.0 | 0.00 | 0.00 | 0.00 | 99 | 1007.4 |
| 20260506040254 | 77 | 168 | 1.0 | 5.0 | 0.00 | 0.00 | 0.00 | 99 | 1007.3 |
| 20260506035751 | 77 | 174 | 1.0 | 2.0 | 0.00 | 0.00 | 0.00 | 99 | 1007.3 |
| 20260506035248 | 77 | 149 | 2.0 | 2.0 | 0.00 | 0.00 | 0.00 | 98 | 1007.1 |
| 20260506034744 | 77 | 132 | 2.0 | 2.0 | 0.00 | 0.00 | 0.00 | 98 | 1007.1 |
| 20260506034242 | 77 | 170 | 1.0 | 2.0 | 0.00 | 0.00 | 0.00 | 98 | 1007.2 |
| 20260506033739 | 77 | 192 | 2.0 | 3.0 | 0.00 | 0.00 | 0.00 | 98 | 1007.0 |
| 20260506033236 | 77 | 181 | 2.0 | 2.0 | 0.00 | 0.00 | 0.00 | 98 | 1007.0 |
| 20260506032732 | 77 | 116 | 0.0 | 2.0 | 0.00 | 0.00 | 0.00 | 97 | 1006.8 |
| 20260506032229 | 77 | 128 | 4.0 | 7.0 | 0.00 | 0.00 | 0.00 | 97 | 1006.5 |
| 20260506031726 | 77 | 128 | 4.0 | 8.0 | 0.00 | 0.00 | 0.00 | 97 | 1006.9 |
| 20260506031223 | 77 | 169 | 3.0 | 5.0 | 0.00 | 0.00 | 0.00 | 97 | 1006.9 |
| 20260506030722 | 78 | 118 | 3.0 | 5.0 | 0.00 | 0.00 | 0.00 | 97 | 1006.7 |
| 20260506030219 | 78 | 195 | 3.0 | 8.0 | 0.00 | 0.00 | 0.00 | 96 | 1006.6 |
| 20260506025715 | 78 | 173 | 4.0 | 6.0 | 0.00 | 0.00 | 0.00 | 96 | 1006.6 |
| 20260506025212 | 78 | 171 | 2.0 | 6.0 | 0.00 | 0.00 | 0.00 | 96 | 1006.6 |
| 20260506024709 | 78 | 158 | 3.0 | 6.0 | 0.00 | 0.00 | 0.00 | 96 | 1006.8 |
| 20260506024205 | 78 | 144 | 3.0 | 5.0 | 0.00 | 0.00 | 0.00 | 96 | 1006.5 |
| 20260506023702 | 78 | 169 | 2.0 | 5.0 | 0.00 | 0.00 | 0.00 | 96 | 1006.6 |
| 20260506023159 | 78 | 173 | 5.0 | 7.0 | 0.00 | 0.00 | 0.00 | 96 | 1006.3 |
| 20260506022656 | 78 | 193 | 3.0 | 7.0 | 0.00 | 0.00 | 0.00 | 96 | 1006.3 |
| 20260506022153 | 78 | 191 | 2.0 | 5.0 | 0.00 | 0.00 | 0.00 | 96 | 1006.1 |
| 20260506021652 | 78 | 170 | 3.0 | 5.0 | 0.00 | 0.00 | 0.00 | 96 | 1005.9 |
| 20260506021148 | 78 | 132 | 7.0 | 9.0 | 0.00 | 0.00 | 0.00 | 95 | 1005.9 |
| 20260506020645 | 78 | 169 | 1.0 | 6.0 | 0.00 | 0.00 | 0.00 | 95 | 1005.9 |
| 20260506020143 | 78 | 186 | 1.0 | 3.0 | 0.00 | 0.00 | 0.00 | 95 | 1006.0 |
| 20260506015640 | 78 | 174 | 3.0 | 5.0 | 0.00 | 0.00 | 0.00 | 95 | 1005.8 |
| 20260506015137 | 78 | 179 | 3.0 | 8.0 | 0.00 | 0.00 | 0.00 | 95 | 1005.7 |
| 20260506014635 | 78 | 142 | 2.0 | 2.0 | 0.00 | 0.00 | 0.00 | 94 | 1005.7 |
| 20260506014130 | 78 | 141 | 3.0 | 8.0 | 0.00 | 0.00 | 0.00 | 94 | 1005.5 |
| 20260506013629 | 78 | 161 | 5.0 | 6.0 | 0.00 | 0.00 | 0.00 | 94 | 1005.5 |
| 20260506013125 | 79 | 179 | 1.0 | 3.0 | 0.00 | 0.00 | 0.00 | 94 | 1005.2 |
| 20260506012622 | 79 | 140 | 5.0 | 7.0 | 0.00 | 0.00 | 0.00 | 93 | 1005.2 |
| 20260506012118 | 79 | 118 | 4.0 | 5.0 | 0.00 | 0.00 | 0.00 | 92 | 1005.1 |
| 20260506011616 | 79 | 118 | 4.0 | 5.0 | 0.00 | 0.00 | 0.00 | 92 | 1005.1 |
| 20260506011112 | 79 | 118 | 4.0 | 5.0 | 0.00 | 0.00 | 0.00 | 92 | 1005.0 |
| 20260506010606 | 79 | 164 | 5.0 | 6.0 | 0.00 | 0.00 | 0.00 | 92 | 1005.1 |
| 20260506005559 | 79 | 154 | 4.0 | 7.0 | 0.00 | 0.00 | 0.00 | 91 | 1005.1 |
| 20260506005055 | 79 | 190 | 3.0 | 5.0 | 0.00 | 0.00 | 0.00 | 91 | 1005.0 |
| 20260506004552 | 79 | 152 | 3.0 | 5.0 | 0.00 | 0.00 | 0.00 | 91 | 1005.0 |
| 20260506004049 | 80 | 199 | 4.0 | 5.0 | 0.00 | 0.00 | 0.00 | 90 | 1004.7 |
| 20260506003545 | 80 | 176 | 3.0 | 5.0 | 0.00 | 0.00 | 0.00 | 90 | 1004.6 |
| 20260506003042 | 80 | 145 | 3.0 | 6.0 | 0.00 | 0.00 | 0.00 | 89 | 1004.6 |
| 20260506002538 | 80 | 133 | 4.0 | 7.0 | 0.00 | 0.00 | 0.00 | 88 | 1004.7 |
| 20260506002034 | 80 | 201 | 5.0 | 6.0 | 0.00 | 0.00 | 0.00 | 88 | 1004.9 |
| 20260506001530 | 80 | 203 | 1.0 | 3.0 | 0.00 | 0.00 | 0.00 | 87 | 1004.6 |
| 20260506001028 | 80 | 169 | 5.0 | 6.0 | 0.00 | 0.00 | 0.00 | 87 | 1004.6 |
| 20260506000525 | 80 | 163 | 3.0 | 5.0 | 0.00 | 0.00 | 0.00 | 87 | 1004.6 |
| 20260506000023 | 80 | 171 | 7.0 | 9.0 | 0.00 | 0.00 | 0.00 | 86 | 1004.7 |
| 20260505235520 | 80 | 149 | 6.0 | 9.0 | 0.00 | 0.00 | 0.00 | 86 | 1004.9 |
| 20260505235017 | 80 | 175 | 5.0 | 6.0 | 0.00 | 0.00 | 0.00 | 86 | 1004.6 |
| 20260505234514 | 81 | 152 | 8.0 | 11.0 | 0.00 | 0.00 | 0.00 | 87 | 1004.4 |
| 20260505234011 | 81 | 150 | 4.0 | 5.0 | 0.00 | 0.00 | 0.00 | 87 | 1004.6 |
| 20260505233508 | 81 | 185 | 5.0 | 8.0 | 0.00 | 0.00 | 0.00 | 87 | 1004.6 |
| 20260505233005 | 81 | 163 | 4.0 | 6.0 | 0.00 | 0.00 | 0.00 | 87 | 1004.6 |
| 20260505232503 | 81 | 215 | 4.0 | 6.0 | 0.00 | 0.00 | 0.00 | 87 | 1004.5 |
| 20260505232000 | 81 | 153 | 7.0 | 8.0 | 0.00 | 0.00 | 0.00 | 87 | 1004.5 |
| 20260505231457 | 81 | 141 | 2.0 | 3.0 | 0.00 | 0.00 | 0.00 | 87 | 1004.8 |
| 20260505230956 | 81 | 141 | 2.0 | 3.0 | 0.00 | 0.00 | 0.00 | 87 | 1004.7 |
| 20260505230453 | 82 | 129 | 5.0 | 9.0 | 0.00 | 0.00 | 0.00 | 87 | 1004.7 |
| 20260505225949 | 81 | 151 | 8.0 | 11.0 | 0.00 | 0.00 | 0.00 | 86 | 1004.8 |
| 20260505225446 | 82 | 190 | 7.0 | 8.0 | 0.00 | 0.00 | 0.00 | 87 | 1004.6 |
| 20260505224942 | 82 | 134 | 8.0 | 10.0 | 0.00 | 0.00 | 0.00 | 86 | 1004.7 |
| 20260505224439 | 82 | 159 | 5.0 | 15.0 | 0.00 | 0.00 | 0.00 | 86 | 1004.9 |
| 20260505223937 | 82 | 149 | 5.0 | 7.0 | 0.00 | 0.00 | 0.00 | 87 | 1004.8 |
| 20260505223433 | 82 | 157 | 7.0 | 10.0 | 0.00 | 0.00 | 0.00 | 87 | 1005.0 |
| 20260505222930 | 82 | 156 | 7.0 | 9.0 | 0.00 | 0.00 | 0.00 | 87 | 1004.7 |
| 20260505222426 | 82 | 137 | 5.0 | 7.0 | 0.00 | 0.00 | 0.00 | 87 | 1004.7 |
| 20260505221922 | 83 | 180 | 6.0 | 8.0 | 0.00 | 0.00 | 0.00 | 87 | 1004.7 |
| 20260505221420 | 82 | 176 | 5.0 | 7.0 | 0.00 | 0.00 | 0.00 | 87 | 1004.8 |
| 20260505220917 | 82 | 156 | 3.0 | 5.0 | 0.00 | 0.00 | 0.00 | 87 | 1004.7 |
| 20260505220413 | 82 | 127 | 4.0 | 8.0 | 0.00 | 0.00 | 0.00 | 87 | 1005.0 |
| 20260505215911 | 82 | 190 | 3.0 | 5.0 | 0.00 | 0.00 | 0.00 | 87 | 1005.0 |
| 20260505215409 | 82 | 197 | 6.0 | 7.0 | 0.00 | 0.00 | 0.00 | 86 | 1005.1 |
| 20260505214907 | 83 | 155 | 7.0 | 10.0 | 0.00 | 0.00 | 0.00 | 86 | 1005.0 |